Weather History for De Queen, AR

Change the Weather History Date:

Thursday, May 16, 2013

  Actual Average Record
Temperature  
Mean Temperature 65 °F 70 °F  
Max Temperature 68 °F 81 °F 92 °F (1987)
Min Temperature 62 °F 59 °F 40 °F (1973)
Degree Days  
Heating Degree Days 0 0  
Month to date heating degree days 69 21  
Since 1 July heating degree days 3050 3042  
Cooling Degree Days 0 5  
Month to date cooling degree days 18 64  
Year to date cooling degree days 78 111  
Growing Degree Days 15 (Base 50)    
Moisture  
Dew Point 63 °F    
Average Humidity 94    
Maximum Humidity 100    
Minimum Humidity 87    
Precipitation  
Precipitation 1.17 in 0.18 in 1.80 in (1980)
Month to date precipitation 2.19 3.39  
Year to date precipitation 9.47 18.96  
Snow  
Snow 0.00 in - - ()
Month to date snowfall 0.0  
Since 1 July snowfall 4.5  
Snow Depth 0.00 in    
Sea Level Pressure  
Sea Level Pressure 29.85 in    
Wind  
Wind Speed 4 mph (ESE)    
Max Wind Speed 12 mph    
Max Gust Speed 17 mph    
Visibility 5 miles    
Events Rain    
T = Trace of Precipitation, MM = Missing Value Source: NWS Daily Summary

Daily Weather History Graph

Daily Weather History Graph

Search for Another Location

Airport:

Trip Planner

Search our weather history database for the weather conditions in past years. The results will help you decide how hot, cold, wet, or windy it might be!

Date:

Astronomy

May. 16, 2013 Rise Set
Actual Time 6:15 AM CDT 8:13 PM CDT
Civil Twilight 5:47 AM CDT 8:41 PM CDT
Nautical Twilight 5:13 AM CDT 9:14 PM CDT
Astronomical Twilight 4:37 AM CDT 9:50 PM CDT
Moon 11:44 AM CDT (5/16) 12:38 AM CDT (5/16)
Length of Visible Light 14h 53m
Length of Day
13h 58m
Waxing Crescent, 36% of the Moon is Illuminated
May 16
Waxing Crescent
May 17
First Quarter
May 24
Full
May 31
Last Quarter
Jun 8
New

Hourly Weather History & Observations

Time (CDT) Temp. Dew Point Humidity Pressure Visibility Wind Dir Wind Speed Gust Speed Precip Events Conditions
12:00 AM 64.0 °F 61.0 °F 90% 29.94 in 1.5 mi Variable 3.5 mph - 0.08 in Rain Rain
12:07 AM 63.0 °F 61.0 °F 93% 29.93 in 0.8 mi Variable 4.6 mph - 0.21 in Rain Heavy Rain
12:15 AM 63.0 °F 61.0 °F 93% 29.92 in 2.0 mi ESE 8.1 mph - 0.25 in Rain Heavy Rain
12:30 AM 63.0 °F 60.1 °F 90% 29.91 in 3.0 mi ESE 9.2 mph - 0.30 in Rain Rain
12:39 AM 62.1 °F 59.0 °F 90% 29.91 in 2.5 mi ESE 10.4 mph - 0.34 in Rain Heavy Rain
12:53 AM 62.1 °F 59.0 °F 90% 29.91 in 3.0 mi Variable 4.6 mph 17.3 mph 0.39 in Rain Light Rain
1:08 AM 63.0 °F 60.1 °F 90% 29.93 in 5.0 mi Variable 6.9 mph - 0.02 in Rain Light Rain
1:31 AM 63.0 °F 60.1 °F 90% 29.90 in 5.0 mi SSE 4.6 mph - 0.03 in Rain Light Rain
1:53 AM 62.1 °F 60.1 °F 93% 29.86 in 10.0 mi ESE 8.1 mph - 0.03 in   Mostly Cloudy
2:19 AM 62.1 °F 60.1 °F 93% 29.86 in 10.0 mi Variable 5.8 mph - N/A   Mostly Cloudy
2:28 AM 62.1 °F 61.0 °F 96% 29.86 in 9.0 mi Variable 3.5 mph - N/A   Mostly Cloudy
2:53 AM 63.0 °F 62.1 °F 97% 29.85 in 9.0 mi Variable 4.6 mph - N/A   Overcast
3:35 AM 64.0 °F 62.1 °F 93% 29.82 in 10.0 mi ESE 8.1 mph - N/A   Scattered Clouds
3:53 AM 64.0 °F 62.1 °F 93% 29.81 in 10.0 mi SE 8.1 mph - N/A   Scattered Clouds
4:45 AM 64.9 °F 62.1 °F 90% 29.80 in 10.0 mi ESE 8.1 mph - 0.00 in Rain Light Rain
4:53 AM 64.9 °F 62.1 °F 90% 29.80 in 10.0 mi SE 9.2 mph - 0.00 in Rain Light Rain
5:53 AM 64.9 °F 63.0 °F 93% 29.80 in 10.0 mi Calm Calm - 0.00 in Rain Light Rain
6:29 AM 64.9 °F 63.0 °F 93% 29.83 in 9.0 mi East 3.5 mph - 0.00 in   Overcast
6:53 AM 64.9 °F 63.0 °F 93% 29.84 in 5.0 mi Calm Calm - 0.00 in Rain Light Rain
7:53 AM 64.9 °F 63.0 °F 93% 29.84 in 7.0 mi ENE 3.5 mph - 0.00 in   Overcast
8:20 AM 64.9 °F 64.0 °F 97% 29.86 in 6.0 mi SE 4.6 mph - N/A   Overcast
8:53 AM 66.0 °F 64.0 °F 93% 29.86 in 6.0 mi ESE 5.8 mph - N/A   Overcast
9:19 AM 66.0 °F 64.9 °F 96% 29.87 in 4.0 mi SE 4.6 mph - 0.00 in Rain Light Rain
9:43 AM 66.9 °F 64.9 °F 93% 29.88 in 7.0 mi Calm Calm - 0.00 in   Overcast
9:53 AM 68.0 °F 64.9 °F 90% 29.86 in 7.0 mi Calm Calm - 0.00 in   Overcast
10:53 AM 68.0 °F 64.9 °F 90% 29.87 in 9.0 mi WSW 3.5 mph - 0.00 in   Mostly Cloudy
11:20 AM 66.9 °F 64.9 °F 93% 29.89 in 2.5 mi SW 4.6 mph - 0.01 in Rain Rain
11:42 AM 66.9 °F 64.9 °F 93% 29.90 in 1.2 mi SW 4.6 mph - 0.06 in Rain Rain
11:53 AM 66.0 °F 64.9 °F 96% 29.89 in 1.2 mi SW 3.5 mph - 0.10 in Rain Rain
12:02 PM 66.0 °F 64.0 °F 93% 29.90 in 0.8 mi SW 4.6 mph - 0.04 in Rain Rain
12:12 PM 66.0 °F 64.0 °F 93% 29.90 in 1.2 mi SW 4.6 mph - 0.08 in Rain Heavy Rain
12:53 PM 64.9 °F 64.0 °F 97% 29.87 in 1.5 mi East 3.5 mph - 0.24 in Rain Heavy Rain
1:07 PM 64.9 °F 64.0 °F 97% 29.87 in 2.5 mi SE 3.5 mph - 0.03 in Rain Rain
1:24 PM 66.0 °F 64.0 °F 93% 29.86 in 3.0 mi East 3.5 mph - 0.07 in Rain Rain
1:36 PM 66.0 °F 64.0 °F 93% 29.86 in 4.0 mi ESE 4.6 mph - 0.08 in Rain Light Rain
1:43 PM 66.0 °F 63.0 °F 90% 29.86 in 4.0 mi ESE 4.6 mph - 0.10 in Rain Rain
1:53 PM 66.0 °F 64.0 °F 93% 29.86 in 2.0 mi Calm Calm - 0.12 in Rain Rain
2:23 PM 64.9 °F 64.0 °F 97% 29.86 in 3.0 mi SE 3.5 mph - 0.05 in Rain Light Rain
2:33 PM 64.9 °F 64.0 °F 97% 29.86 in 2.0 mi ESE 4.6 mph - 0.08 in Rain Rain
2:45 PM 64.9 °F 63.0 °F 93% 29.87 in 3.0 mi Calm Calm - 0.10 in Rain Rain
2:53 PM 64.9 °F 63.0 °F 93% 29.85 in 2.5 mi East 3.5 mph - 0.12 in Rain Rain
3:02 PM 64.9 °F 63.0 °F 93% 29.85 in 1.0 mi ENE 6.9 mph - 0.09 in Rain Heavy Rain
3:27 PM 64.9 °F 64.0 °F 97% 29.83 in 3.0 mi East 8.1 mph - 0.17 in Rain Light Rain
3:53 PM 66.0 °F 64.0 °F 93% 29.83 in 6.0 mi SE 3.5 mph - 0.17 in Rain Light Rain
4:07 PM 66.0 °F 64.0 °F 93% 29.84 in 10.0 mi SSE 3.5 mph - 0.00 in   Overcast
4:30 PM 66.0 °F 64.0 °F 93% 29.84 in 9.0 mi ESE 4.6 mph - 0.00 in Rain Light Rain
4:39 PM 66.0 °F 63.0 °F 90% 29.84 in 1.8 mi ESE 4.6 mph - 0.04 in Rain Heavy Rain
4:50 PM 66.2 °F 64.4 °F 94% 29.84 in 3.0 mi SE 4.6 mph - 0.05 in Rain Light Rain
4:53 PM 66.0 °F 64.0 °F 93% 29.83 in 2.0 mi SE 5.8 mph - 0.07 in Rain Light Rain
5:15 PM 64.9 °F 63.0 °F 93% 29.84 in 0.8 mi SSE 6.9 mph - 0.13 in Rain Heavy Rain
5:34 PM 64.0 °F 63.0 °F 96% 29.83 in 1.0 mi SE 4.6 mph - 0.31 in Rain Heavy Rain
5:47 PM 64.4 °F 62.6 °F 94% 29.82 in 3.0 mi East 5.8 mph - 0.34 in Rain Light Rain
5:53 PM 64.0 °F 62.1 °F 93% 29.81 in 7.0 mi East 6.9 mph - 0.34 in Rain Light Rain
6:22 PM 64.0 °F 63.0 °F 96% 29.82 in 10.0 mi NE 5.8 mph - 0.00 in   Overcast
6:53 PM 64.0 °F 62.1 °F 93% 29.81 in 10.0 mi East 6.9 mph - 0.00 in Rain Light Rain
7:53 PM 64.0 °F 63.0 °F 96% 29.81 in 10.0 mi East 4.6 mph - 0.00 in   Overcast
8:35 PM 64.9 °F 63.0 °F 93% 29.82 in 10.0 mi Calm Calm - 0.00 in Rain Light Rain
8:53 PM 64.9 °F 63.0 °F 93% 29.81 in 10.0 mi ENE 4.6 mph - 0.00 in   Overcast
9:53 PM 66.0 °F 64.0 °F 93% 29.83 in 10.0 mi ENE 4.6 mph - 0.00 in   Overcast
10:53 PM 64.9 °F 64.0 °F 97% 29.83 in 9.0 mi Calm Calm - 0.00 in   Overcast
11:10 PM 64.9 °F 63.0 °F 93% 29.84 in 8.0 mi Calm Calm - N/A   Overcast
11:26 PM 64.9 °F 64.0 °F 97% 29.84 in 7.0 mi Calm Calm - N/A   Overcast
11:53 PM 64.9 °F 63.0 °F 93% 29.83 in 6.0 mi Calm Calm - N/A   Mostly Cloudy